"Pseudo-MPEC" for P117ymK

Created 2020 Oct 23 22:07:31 UT using Find_Orb

Click here for an explanation of pseudo-MPECs

 
 Astrometry: 
     P117ymK KC2020 09 09_:mI9ZSoo#\fdy0Znss6.xkgimAstrometryJ'3QesEXv_lO.a,jF51
     P117ymK  C2020 09 13(Kil+8e$Nts;FfeMp8MKIUqRcY8-;cw-o5Ms=!P6vV(#0xo]n@`IF52
     P117ymK  C2020 09 138lfK+t@nKM=:TkWUAGrqWTth,i%!df$VXE[=s!fD()^]tolop@MrF52
     P117ymK  C2020 09 13noY^uZa82s7m70H#T*`lA5;4^eR%m%sb81]LgxdyrlcfnfuyA@;]F52
     P117ymK  C2020 09 13Ta%o@RXXdo*QnHQ@$w)klIfkO-ekD@k![JpU(3@xqrFs#fxoiF/kF52
     P117ymK  C2020 09 13mpW8oQ]pf-@AdI.*!%V!RYgP46s4T\!S7:HBw._8)#a7-p=HQ^yeF52
     P117ymK  C2020 09 24.27758100 28 07.45 -12 55 37.5    ~AENq 21.28GVNEOCPG96
     P117ymK  C2020 09 24.28275100 28 07.18 -12 55 39.3    ~AENq 21.31GVNEOCPG96
     P117ymK  C2020 09 24.28793400 28 06.96 -12 55 41.9    ~AENq 21.16GVNEOCPG96
     P117ymK  C2020 09 24.29309100 28 06.73 -12 55 43.6    ~AENq 20.62GVNEOCPG96
     P117ymK  C2020 10 10.27367200 14 14.55 -14 06 36.6    ~ADNb 20.25GVNEOCPG96
     P117ymK  C2020 10 10.27892700 14 14.26 -14 06 36.5    ~ADNb 20.72GVNEOCPG96
     P117ymK  C2020 10 10.28415000 14 13.98 -14 06 38.2    ~ADNb 20.92GVNEOCPG96
     P117ymK  C2020 10 10.28935600 14 13.69 -14 06 39.0    ~ADNb 20.13GVNEOCPG96
     P117ymK  C2020 10 10tLT(/Z*bKxdmO\Uht^k6uSREqJGH.h)MBe\VIx[GbNQx]srAe.p;F51
     P117ymK  C2020 10 10;iebkMcYVjUvL1E$FG@tredacted;x1q6R6y.:=wYZC,w=A29mC^F51
     P117ymK  C2020 10 10Kj_k]cP/y\yR_.FV_%j(2A_Obqh/nZ8f%1#h;fBwft6NAmgF7J2YF51
     P117ymK  C2020 10 10caAZ)Q(01uP7,SY!t!R`Pihq6UqMY*,BE(VOY__DZ5[@BoApsVFbF51
     P117ymK  C2020 10 11DqRTCZgM@0rHf!'K`L_Oa%LVFh'ty'6wyi+BIsIi)ulIwMO]S4goF51
     P117ymK  C2020 10 11:9%:[,4Z4K2gn=/q6X:s-,C*ZrB3,/(.o7n]L(b^oV!X'ljBexNbF51
     P117ymK 2C2020 10 13(bZJPA32uitD'i\SKD7uUl-\^xX$PafXI!]SvJfK::pA)Rt/Pe^+J04
     P117ymK 2C2020 10 131kBJCNs;n,eIirym8K-SuN6MEWA)=SO9#rm+l/SxN#AF4_'B8JN)J04
     P117ymK 2C2020 10 13'NaH1XU`qXYd=%sq#GNxnPf-2.E43M:UYg7rM.*`rHel?Bmm@aw-J04
     P117ymK KC2020 10 14n/omx\uPPum=2?EtI+lqK86m,]hG5OpDx=v[88eigX`Sw+MGk@rp711
     P117ymK KC2020 10 142ccrF+t[4jZ3aVHI3C6F]jwCqx4kq^$Z!PZ-Jpun*bV:00=x-Txj711
     P117ymK KC2020 10 14xOgINU;y9?3;oGHtqwh!`Dpp.3H;A`sPMCX)^1BWx]E_=]irCghm711
     P117ymK  C2020 10 14vVp7wpQKF%nX.RiPcghigMj*d3V-yUvUKh,A?WBx%,1D7teYR,.6F51
     P117ymK  C2020 10 14Kum2uFgL!8:aZ3sV2R0rdT/8tBVL)cT90fiVT;1l/LvE6.xG[UDTF51
     P117ymK  C2020 10 14Og1p)?JC)629D'Jk6Pq2vbuN/VjdTxnAcJ7mi;jL,VeP]iAM?m9oF51
     P117ymK 2C2020 10 14UhCxg\SfPtOfvC'fo3v4Y#_`w,Tl;B6YAWNCFHM!hIDJjn7f\U`oZ84
     P117ymK 2C2020 10 14:7!n)=7sP2QF`Nmb!nQ%lUo:l5wi7q*NLxWC5Qt!\@a0gJf5!k\0Z84
     P117ymK 2C2020 10 14:vOM$sdO#l!JEkUslkn.![XgK32-CL]yV1$OOS,B/aF/,!(SFPaGZ84
     P117ymK KC2020 10 152?i7,!DO('N^l,gB:sdI402Ae;t1k[2WT!n:WlC_NKw@XdbL7uKj711
     P117ymK KC2020 10 15bFU#@@HUSZc.(#?uF$#r!C*?,V0f+\Wm(fJ#-s2:-viSBFALeVuK711
     P117ymK KC2020 10 152,7qBne$[5'Bbn\oj^_CZWw'y#]dYX5Eq`O\?dq,ZnB)8ZB6;3vy711
     P117ymK KC2020 10 15k3click=$ER$d2u$aWw%Nx1bl-F+BhA]B.3uy8XED\cWWBr4?x=/711
     P117ymK *C2020 10 15Ydq%I9GDPj,=e`=XYWHRkAPa99@#dyL#GJ-kVJ0AhZ^kZdJkfV\aE10
     P117ymK *C2020 10 15`xTW)v?-]0d.@)/;gTO+$AK5#3OU3)tklNx1\5uw;Z'$unXK7lKIE10
     P117ymK *C2020 10 158U%L_Sq;EEm0[(+[p-YkU7p/(b5.fMdES#xJwJ1a_9FAsF7%\6qSE10
     P117ymK *C2020 10 15EyoZb[.LZ;)XfG/j2pOKJy=;%Bxo9+;mOU67[pSd)?18/wc^H%/!E10
     P117ymK *C2020 10 16BJ[?P2-k%bA4xXoH1YQ*DDmA-,D2hereoE/sNvW:]@Ew.w0$FA7QE10
     P117ymK *C2020 10 16\uMW\YUINUX[`xl5It[F)2Va2Rxd249_lvs!y!VW#lqU8KkaFb)8E10
     P117ymK *C2020 10 16jKJhi\#\vI2oJ1p'Bts9OeetMe5nm-8rX;n]wj`0_1u0l*?W3*vbE10
     P117ymK *C2020 10 161;Fc/.![f\v4?N%^kYN]Q2/`_br!Xrdhf#lH'AN`!f$lySOQ?+:?E10
     P117ymK KC2020 10 18lS[.:6s\=9_c;9D6g*8-c*-p485fors,/?_j]H*tu@k4T)?Ssa71L01
     P117ymK KC2020 10 18npUp^G`WSowm_Z;D.jdy$j.ada4KxF?SpOITv/1*$.QCFbQ6L+nqL01
     P117ymK KC2020 10 189/[TC`,CY_9.cG_rYCQAtot1pd7UX.HACd).bcH!K1#0]6S41']PL01
     P117ymK ^C2020 10 19.22393500 06 57.983-14 10 46.46   ~AJ5q 21.60GVNEOCP568
     P117ymK ^C2020 10 19.22545900 06 57.910-14 10 46.39   ~AJ5q 21.63GVNEOCP568
     P117ymK ^C2020 10 19.22698300 06 57.837-14 10 46.27   ~AJ5q 21.92GVNEOCP568
     P117ymK  C2020 10 20!ne,Uwn#lY]OAEli#(^9\L%=0Us$U8d0jYg.%FETgjGWke1HmI)vF52
     P117ymK  C2020 10 20A!,vtd+f);V\?A(duoUva8/arl79mwiAtbEiaK](-W#1T)1ougX7F52
     P117ymK  C2020 10 20`KNSexplanationrLCnBqVg;tN@20N4AQEO40EdwW!7\OkUU4#w_F52
     P117ymK  C2020 10 21.20219100 05 34.39 -14 07 25.0    ~AL5q 20.15GVNEOCPG96
     P117ymK  C2020 10 21.20833300 05 34.05 -14 07 24.9    ~AL5q 20.27GVNEOCPG96
     P117ymK  C2020 10 21.21449700 05 33.77 -14 07 24.3    ~AL5q 20.89GVNEOCPG96
     P117ymK  C2020 10 21.22064800 05 33.50 -14 07 23.4    ~AL5q       VNEOCPG96
     P117ymK  C2020 10 22Y-FAsVo-R,'hpRH^S_@]POlRD$ebXM/yF?H.qnyEe%w3c+r^B#34F51
     P117ymK  C2020 10 22A@Xy_AX2*1YIZAA65@[Ty3g=r:!:=h(8balH\JZf[m5o4V`$PuX*F51
     P117ymK  C2020 10 22.G:t1D##-doU?ifU]U$Kfd)p`bHb!OV##gHD/D:dx3-hDtmJ:1S0F51
     P117ymK  C2020 10 22KoetWf#gj.laS!+m?*HIKvpu6'(!Sxf'/R*wv0+BK^wW+;2C=5HnF51

Station data:
(568) Mauna Kea  (N19.826116 W155.472200)  US/Hawaii.
(711) McDonald Observatory, Fort Davis  (N30.671481 W104.021500)  US/Texas.
   0.76-m f/3.0 reflector.
(E10) Siding Spring-Faulkes Telescope South  (S31.273173 E149.070280)
   Australia/NSW.
(F51) Pan-STARRS 1, Haleakala  (N20.707235 W156.255910)  US/Hawaii.
   Observers N. Primak, A. Schultz, S. Watters, J. Thiel, T. Goggia. Measurer
   PS1 Science Consortium. 1.8-m Ritchey-Chrétien + CCD.
(F52) Pan-STARRS 2, Haleakala  (N20.707384 W156.255910)  US/Hawaii. 1.8-m
   Ritchey-Chrétien + CCD.
(G96) Mt. Lemmon Survey  (N32.442754 W110.788720)  US/Arizona.  Observers T.
   A. Pruyne, B. M. Africano, E. J. Christensen, G. A. Farneth, D. C. Fuls,
   A. R. Gibbs, A. D. Grauer, H. Gröller, J. A. Johnson, R. A. Kowalski, S.
   M. Larson, G. J. Leonard, D. Rankin, R. L. Seaman, F. C. Shelly. 1.5-m
   reflector + 10K CCD.
(J04) ESA Optical Ground Station, Tenerife  (N28.300924 W16.511830)  Canary
   Islands (Spain).  Observer D. Abreu. Measurers M. Micheli, D. Koschny, E.
   Schwab, M. Busch, A. Knöfel. 1.0-m f/4.4 reflector + CCD.
(L01) Višnjan Observatory, Tičan  (N45.290900 E13.749300)  Croatia.
   Observers K. Korlević, E. Pettarin. Measurer E. Pettarin. 1.0-m f/2.9
   reflector + CCD.
(Z84) Calar Alto-Schmidt  (N37.224049 W2.548210)  Spain.  Observer E. Schwab.
   Measurers E. Schwab, D. Koschny, M. Micheli. 0.8-m f/3 Schmidt + CCD.

Orbital elements:  P117ymK
   Perihelion 2021 Jan 20.459284 +/- 0.00726 TT = 11:01:22 (JD 2459234.959284)
Epoch 2020 Oct 22.0 TT = JDT 2459144.5   Earth MOID: 0.4508   Ju: 0.1061
M 346.48315107 +/- 0.0026           Ma: 0.0703                AutoNEOCP
n   0.14942467 +/- 2.98e-5          Peri.  357.04500 +/- 0.0036
a   3.51712529 +/- 0.000468         Node    74.01622 +/- 0.0024
e   0.5915540 +/- 5.97e-5           Incl.    7.29571 +/- 0.00031
P   6.60                   H 19.4   G  0.15   U  5.7  
q 1.43655553 +/- 5.66e-5    Q 5.59769505 +/- 0.000949
From 61 observations 2020 Sept. 9-Oct. 22; mean residual 0".34
Residuals in arcseconds: 
200909 F51  .36-  .16-    201013 J04  .04-  .03+    201016 E10  .24-  .14-    
200913 F52  .14+  .32-    201013 J04  .16+  .08+    201016 E10  .19-  .08-    
200913 F52  .26+  .06-    201014 711  .26+  .32-    201018 L01  .28+  .74+    
200913 F52  .10-  .23+    201014 711  .21+  .43-    201018 L01  .13+  .71+    
200913 F52  .06+  .01-    201014 711  .29+  .24-    201018 L01  .45-  .67+    
200913 F52  .39+  .10-    201014 F51  .05+  .01+    201019 568  .33-  .44-    
200924 G96  .32-  .31+    201014 F51  .03+  .03+    201019 568  .36-  .48-    
200924 G96  .42-  .45+    201014 F51  .13-  .10-    201019 568  .39-  .46-    
200924 G96  .23+  .21-    201014 Z84  .14+  .13+    201020 F52  .01+  .34+    
200924 G96  .71+  .02+    201014 Z84  .46+  .50-    201020 F52  .20-  .23+    
201010 G96  .11-  .52+    201014 Z84  .35+  .32-    201020 F52  .12+  .48-    
201010 G96  .02-  1.3+    201015 711  .62-  1.2-    201021 G96  1.1+  .77+    
201010 G96  .19+  .25+    201015 711  .23-  .57-    201021 G96  .07+  .10+    
201010 G96  .24+  .11+    201015 711  .26-  .38-    201021 G96  .02-  .08-    
201010 F51  .19-  .21-    201015 711  .34-  .10+    201021 G96  .02+  .04+    
201010 F51  .01-  .24-    201015 E10  .28-  .19+    201022 F51  .13+  .12-    
201010 F51  .04+  .10-    201015 E10  .17+  .00     201022 F51  .06-  .28-    
201010 F51  .07-  .07-    201015 E10  .26-  .01+    201022 F51  .52+  .11-    
201011 F51  .15-  .16-    201015 E10  .11-  .02+    201022 F51  .02+  .09-    
201011 F51  .21-  .07-    201016 E10  .03-  .11+    
201013 J04  .08-  .32+    201016 E10  .35-  .08+    

Ephemerides (geocentric):
Date (UTC) HH   RA              Dec         delta   r     elong  mag " sig PA
---- -- -- --  -------------   -----------  ------ ------ -----  --- ---- ---
2020 10 23 22  00 03 50.719   -14 00 00.34  .82304 1.7219 142.5 21.2 .142 177
2020 10 23 23  00 03 49.235   -13 59 52.17  .82303 1.7217 142.4 21.2 .143 177
2020 10 24 00  00 03 47.754   -13 59 43.97  .82302 1.7215 142.4 21.2 .145 177
2020 10 24 01  00 03 46.277   -13 59 35.71  .82300 1.7212 142.3 21.2 .146 177
2020 10 24 02  00 03 44.803   -13 59 27.42  .82299 1.7210 142.3 21.2 .147 177
2020 10 24 03  00 03 43.332   -13 59 19.08  .82298 1.7208 142.3 21.2 .148 178
2020 10 24 04  00 03 41.865   -13 59 10.70  .82297 1.7205 142.2 21.2 .149 178
2020 10 24 05  00 03 40.401   -13 59 02.27  .82295 1.7203 142.2 21.2 .150 178
2020 10 24 06  00 03 38.940   -13 58 53.80  .82294 1.7201 142.1 21.2 .151 178
2020 10 24 07  00 03 37.483   -13 58 45.28  .82293 1.7198 142.1 21.2 .152 178
2020 10 24 08  00 03 36.029   -13 58 36.73  .82292 1.7196 142.0 21.2 .154 178
2020 10 24 09  00 03 34.578   -13 58 28.13  .82291 1.7194 142.0 21.2 .155 178
2020 10 24 10  00 03 33.131   -13 58 19.48  .82290 1.7191 142.0 21.2 .156 178
